CW9804 Weather Reports


Display with metric or nautical units.
time (UTC)temp
F
wind
direction
speed
MPH
gust
MPH
rain 1hr
in
rain 24hr
in
rain mn
in
humidity
%
barometer
mb
20240226144912 51 298 3.0 5.0 0.00 0.00 0.00 65 1007.4
20240226143412 51 308 2.0 8.0 0.00 0.00 0.00 65 1007.3
20240226141912 51 314 2.0 5.0 0.00 0.00 0.00 65 1007.2
20240226140412 51 258 2.0 4.0 0.00 0.00 0.00 66 1007.3
20240226134912 51 296 2.0 3.0 0.00 0.00 0.00 64 1007.2
20240226133412 51 313 2.0 4.0 0.00 0.00 0.00 65 1007.2
20240226131911 51 316 4.0 9.0 0.00 0.00 0.00 64 1007.2
20240226130411 51 302 8.0 12.0 0.00 0.00 0.00 63 1007.1
20240226124911 52 308 2.0 8.0 0.00 0.00 0.00 64 1006.9
20240226123411 52 295 5.0 10.0 0.00 0.00 0.00 64 1006.9
20240226121911 52 271 2.0 7.0 0.00 0.00 0.00 63 1007.0
20240226120411 51 294 5.0 9.0 0.00 0.00 0.00 63 1007.1
20240226114911 51 259 4.0 16.0 0.00 0.00 0.00 64 1007.1
20240226113411 51 304 3.0 8.0 0.00 0.00 0.00 62 1007.2
20240226111910 52 298 5.0 8.0 0.00 0.00 0.00 62 1007.4
20240226110410 51 243 1.0 6.0 0.00 0.00 0.00 62 1007.4
20240226104910 51 216 1.0 8.0 0.00 0.00 0.00 62 1007.3
20240226103410 52 257 7.0 10.0 0.00 0.00 0.00 64 1007.6
20240226101910 51 252 4.0 8.0 0.00 0.00 0.00 63 1007.3
20240226100410 50 296 5.0 10.0 0.00 0.00 0.00 65 1007.3
20240226094910 50 271 4.0 11.0 0.00 0.00 0.00 67 1007.2
20240226093409 50 328 0.0 4.0 0.00 0.00 0.00 70 1007.3
20240226091909 49 291 4.0 7.0 0.00 0.00 0.00 72 1007.2
20240226090414 47 52 1.0 4.0 0.00 0.00 0.00 78 1007.2
20240226084914 46 61 2.0 4.0 0.00 0.00 0.00 81 1007.3
20240226083414 44 95 1.0 2.0 0.00 0.00 0.00 83 1007.3
20240226081914 43 96 2.0 3.0 0.00 0.00 0.00 84 1007.3
20240226080414 42 110 1.0 3.0 0.00 0.00 0.00 88 1007.3
20240226074914 40 115 0.0 2.0 0.00 0.00 0.00 92 1007.2
20240226073414 38 141 0.0 0.0 0.00 0.00 0.00 93 1007.0
20240226071914 37 76 1.0 2.0 0.00 0.00 0.00 94 1006.9
20240226070414 35 217 0.0 3.0 0.00 0.00 0.00 93 1006.9
20240226064914 35 74 1.0 3.0 0.00 0.00 0.00 94 1006.8
20240226063413 35 86 2.0 3.0 0.00 0.00 0.00 94 1006.4
20240226061913 35 222 0.0 3.0 0.00 0.00 0.00 94 1006.3
20240226060413 34 150 1.0 2.0 0.00 0.00 0.00 93 1006.3
20240226014911 39 224 1.0 3.0 0.00 0.00 0.00 92 1006.6
20240226013412 38 190 1.0 4.0 0.00 0.00 0.00 93 1006.8
20240226011911 37 240 0.0 3.0 0.00 0.00 0.00 93 1006.7
20240226010411 37 141 1.0 2.0 0.00 0.00 0.00 92 1006.7
20240226004912 38 88 0.0 2.0 0.00 0.00 0.00 91 1006.9
20240226003412 39 88 1.0 2.0 0.00 0.00 0.00 91 1007.0
20240226001912 39 81 2.0 3.0 0.00 0.00 0.00 91 1007.2
20240226000412 39 61 3.0 4.0 0.00 0.00 0.00 91 1007.4
20240225234912 39 80 0.0 0.0 0.00 0.00 0.00 91 1007.4
20240225233412 39 80 0.0 1.0 0.00 0.00 0.00 90 1007.3
20240225231911 41 229 0.0 2.0 0.00 0.00 0.00 86 1007.5
20240225230411 40 236 3.0 7.0 0.00 0.00 0.00 87 1007.6
20240225224911 40 234 1.0 3.0 0.00 0.00 0.00 88 1008.0
20240225223411 41 180 0.0 1.0 0.00 0.00 0.00 87 1008.1
20240225221911 41 237 2.0 3.0 0.00 0.00 0.00 88 1008.1
20240225220411 42 44 0.0 2.0 0.00 0.00 0.00 85 1008.3
20240225214911 44 315 0.0 4.0 0.00 0.00 0.00 82 1008.4
20240225213411 42 230 0.0 3.0 0.00 0.00 0.00 85 1008.1
20240225211911 42 201 2.0 4.0 0.00 0.00 0.00 85 1008.3
20240225210410 44 65 0.0 0.0 0.00 0.00 0.00 83 1008.6
20240225204910 44 49 1.0 3.0 0.00 0.00 0.00 82 1008.6
20240225203410 44 198 0.0 2.0 0.00 0.00 0.00 82 1008.6
20240225201910 45 207 1.0 3.0 0.00 0.00 0.00 81 1008.6
20240225200410 45 224 3.0 4.0 0.00 0.00 0.00 82 1008.5
20240225194914 44 174 0.0 0.0 0.00 0.00 0.00 82 1008.6
20240225193414 44 192 0.0 0.0 0.00 0.00 0.00 83 1008.5
20240225191914 45 193 0.0 0.0 0.00 0.00 0.00 81 1008.5
20240225190414 46 150 0.0 2.0 0.00 0.00 0.00 80 1008.8
20240225184914 45 316 1.0 2.0 0.00 0.08 0.00 81 1008.9
20240225183414 45 213 0.0 2.0 0.00 0.00 0.00 80 1008.9
20240225181914 46 146 2.0 4.0 0.00 0.00 0.00 79 1008.7
20240225180414 47 169 0.0 4.0 0.00 0.00 0.00 77 1008.8
20240225174914 47 178 1.0 2.0 0.00 0.00 0.00 79 1008.8
20240225173414 47 259 0.0 2.0 0.00 0.00 0.00 78 1009.0
20240225171914 48 260 0.0 2.0 0.00 0.00 0.00 76 1009.0
20240225170414 49 259 1.0 3.0 0.00 0.00 0.00 75 1008.7
20240225164913 50 229 4.0 6.0 0.00 0.00 0.00 72 1008.4
20240225163414 51 192 3.0 5.0 0.00 0.00 0.00 69 1008.4
20240225161913 51 208 2.0 7.0 0.00 0.00 0.00 68 1008.3
20240225160413 52 186 0.0 3.0 0.00 0.00 0.00 67 1008.2
20240225154913 52 157 1.0 3.0 0.00 0.00 0.00 66 1008.1
20240225153413 52 217 0.0 0.0 0.00 0.00 0.00 66 1008.1
20240225151913 53 217 1.0 3.0 0.00 0.00 0.00 62 1008.3
20240225150413 54 196 0.0 3.0 0.00 0.00 0.00 60 1008.2